DELTA 1 DEB, 26036

Orbit data source: Space-Track

DELTA 1 DEB, 26036 is space debris in SSO originally from a launch on Thu, 12 Jun 1975 UTC launched from the Air Force Western Test Range (AFWTR). Debris objects in space refer to the collection of defunct objects orbiting the Earth. Examples of debris include non-operational satellites, rocket bodies, and fragments generated from explosions, collisions, or faulty payload assembly.

Loading next visibility...
Identifier
26036, 1975-052KA
Orbit
SSO
Country
Flag of USUS
Related business
Manufacturer
Unknown
Mission
Spacecraft
Bus & Motor
Unknown
Mass
Unknown
Launch date (UTC)
1975-06-12 (50 years ago)
Launch vehicle
Unknown
Launch site
Air Force Western Test Range (AFWTR)
Object type
Payload
Rocket body
Debris
Shape & HBR
Unknown shape, 0.1 m
Radar Cross Section
Small (<0.1 m²)

Expand to show TLE details & history
Last TLE update: 17 hours ago

TLE from 17 hours ago
0 DELTA 1 DEB
1 26036U 75052KA  25287.42843136  .00023533  00000-0  33878-2 0  9998
2 26036  99.9543  93.7230 0063969  86.6482 274.2036 14.74948986398115
Epoch: 2025-10-14T10:16Z
TLE epoch observation values (Epoch: 2025-10-14T10:16:56.469Z)
Latitude
0.00003°
Longitude
-83.72929°
Altitude
645.251 km
Speed
7.537 km/s
True Right ascension
06h 14m 53s
True Declination
0° 00' 00"
Sunlit
Object was in daylight at epoch
Visualization orbit readout
Latitude
Unknown
Longitude
Unknown
Altitude
Unknown
Speed
Unknown
Apparent Right ascension
Unknown
Apparent Declination
Unknown
Sunlit
N/A
Visualization observer readout
Local Sidereal Time
22:16:59
Azimuth
Unknown
Elevation
Unknown
Doppler factor
Unknown
Orbital elements
Apogee altitude
687.374 km
Perigee altitude
597.554 km
Semi-major axis
7,020.601 km
Eccentricity
0.0064
Inclination
99.9543°
RAAN
93.723°
Arg. of periapsis
86.6482°
True anomaly
273.47213°
Mean anomaly
274.2036°
Eccentric anomaly
273.83791°
Mean motion
3.68962 °/min
Orbital period
97.57 mins
BSTAR
0.0033878
Loading maneuver chart data...
Computing Atmospheric mass density...
Loading historical data...
Loading historical data...
Loading historical data...
Loading historical data...
Loading historical data...
Loading historical data...
Loading historical data...

Documentation

Showing up to 5 results
|